Location: Unspecified
(0.0000°N, 0.0000°E)
Time: 00:02:20
(UTC+00:00)

STARLINK-31363 - Pass Details

Date: 05 May 2025
Orbit: 482 x 484 km, 43.0° (Epoch: 16 May)

Event Time Altitude Azimuth Distance (km) Brightness Sun altitude
Rises 19:02:59 0° 236° (SW) 2,531 7.6 -15.9°
Reaches altitude 10° 19:05:15 10° 243° (WSW) 1,650 6.7 -16.4°
Maximum altitude 19:08:48 41° 314° (NW) 707 4.6 -17.3°
Drops below altitude 10° 19:12:21 10° 26° (NNE) 1,644 6.0 -18.1°
Enters shadow 19:13:36 - 31° (NNE) 2,123 6.5 -18.4°
